Meteo Giornale » Osservazioni meteo Canada » Toronto Island ARS
ore: 06:47 - Osservazioni Meteo Toronto Island ARS
Lat. 43° 38' N Lon. 79° 24' W Alt. 77 metri s.l.m.
19 °C
Foschia
Temp. 24 Ore
19 °C
20 °C
Nord
5.5 Km/h
Dew point 0 °C
Umidità 27 %
Visibilità 5 Km
Il sole sorge alle ore 06:41
Il sole tramonta alle ore 19:53
| Data e Ora | Cielo e Fenomeni | T °C | DP °C | Um. % | Pres. hPa | Vis. km | Vento km/h | |
|---|---|---|---|---|---|---|---|---|
| Oggi h: 06:47 | Foschia | 19 | 0 | 27 | 1012 | 5 | N 5.5 | |
| Oggi h: 06:27 | Foschia | 19 | 0 | 27 | 1012 | 3 | E/NE 7.4 | |
| Oggi h: 06:12 | Foschia | 19 | 0 | 27 | 1012 | 5 | N 3.7 | |
| Oggi h: 06:01 | Foschia | 19 | 0 | 27 | 1012 | 3 | N 5.5 | |
| Oggi h: 06:00 | Foschia | 19 | 0 | 27 | 1012 | 2 | E 7.4 | |
| Oggi h: 05:56 | Foschia | 19 | 0 | 27 | 1012 | 2 | E 7.4 | |
| Oggi h: 05:54 | Foschia | 19 | 0 | 27 | 1012 | 5 | E 7.4 | |
| Oggi h: 05:48 | Foschia | 19 | 0 | 27 | 1012 | 5 | E/NE 7.4 | |
| Oggi h: 05:43 | Foschia | 19 | 0 | 27 | 1012 | 5 | N 5.5 | |
| Oggi h: 05:39 | Foschia | 19 | 0 | 27 | 1012 | 3 | N 0 | |
| Oggi h: 05:25 | Foschia | 19 | 0 | 27 | 1012 | 2 | N 0 | |
| Oggi h: 05:19 | Foschia | 19 | 0 | 27 | 1012 | 2 | N 0 | |
| Oggi h: 05:00 | Foschia | 19 | 0 | 27 | 1012 | 8 | N 5.5 | |
| Oggi h: 04:52 | Foschia | 19 | 0 | 27 | 1012 | 5 | E/NE 9.3 | |
| Oggi h: 04:49 | Foschia | 19 | 0 | 27 | 1012 | 2 | E/NE 7.4 | |
| Oggi h: 04:36 | Foschia | 20 | 0 | 26 | 1012 | 2 | N 5.5 | |
| Oggi h: 04:35 | Foschia | 20 | 0 | 26 | 1012 | 2 | E 7.4 | |
| Oggi h: 04:24 | Foschia | 20 | 0 | 26 | 1011 | 5 | N 5.5 | |
| Oggi h: 04:19 | Foschia | 20 | 0 | 26 | 1012 | 2 | E 7.4 | |
| Oggi h: 04:15 | Foschia | 20 | 0 | 26 | 1012 | 5 | E 7.4 | |
| Oggi h: 04:00 | Foschia | 20 | 0 | 26 | 1012 | 2 | N 5.5 | |
| Oggi h: 03:20 | Foschia | 20 | 0 | 26 | 1012 | 3 | E 9.3 | |
| Oggi h: 03:05 | Foschia | 19 | 0 | 27 | 1012 | 2 | E/NE 11.1 | |
| Oggi h: 03:00 | Foschia | 19 | 0 | 27 | 1012 | 8 | E/NE 11.1 | |
| Oggi h: 02:46 | Foschia | 19 | 0 | 27 | 1012 | 2 | E/NE 7.4 | |
| Oggi h: 02:00 | Foschia | 20 | 0 | 26 | 1013 | 5 | E/NE 9.3 | |
| Oggi h: 01:06 | Nebbia | 20 | 20 | 100 | 1013 | 5 | E/NE 13 | |
| Oggi h: 01:00 | Nebbia | 20 | 20 | 100 | 1013 | 2 | E/NE 11.1 | |
| Oggi h: 00:03 | Foschia | 19 | 19 | 100 | 1014 | 5 | E/NE 13 | |
| Oggi h: 00:02 | Foschia | 19 | 19 | 100 | 1014 | 2 | E/NE 13 | |
| Oggi h: 00:00 | Foschia | 19 | 19 | 100 | 1014 | 2 | E/NE 13 | |
| Ieri h: 23:50 | Foschia | 20 | 20 | 100 | 1014 | 5 | E 13 | |
| Ieri h: 23:46 | Foschia | 19 | 19 | 100 | 1014 | 2 | E/NE 13 | |
| Ieri h: 23:19 | Foschia | 19 | 19 | 100 | 1014 | 5 | E/NE 16.7 | |
| Ieri h: 23:08 | Foschia | 19 | 19 | 100 | 1014 | 3 | E/NE 16.7 | |
| Ieri h: 23:00 | Foschia | 19 | 19 | 100 | 1015 | 2 | E/NE 16.7 | |
| Ieri h: 22:56 | Foschia | 19 | 19 | 100 | 1015 | 5 | E/NE 13 | |
| Ieri h: 22:49 | Pioggia Foschia | 19 | 19 | 100 | 1015 | 5 | E 14.8 | |
| Ieri h: 22:45 | Pioggia Foschia | 19 | 19 | 100 | 1015 | 3 | E 13 | |
| Ieri h: 22:19 | Pioggia Foschia | 19 | 19 | 100 | 1015 | 2 | E/NE 16.7 | |
| Ieri h: 22:14 | Foschia | 19 | 19 | 100 | 1015 | 5 | E/NE 13 | |
| Ieri h: 22:12 | Foschia | 19 | 19 | 100 | 1015 | 3 | E/NE 13 | |
| Ieri h: 22:01 | Foschia | 19 | 19 | 100 | 1015 | 3 | E 13 | |
| Ieri h: 22:00 | Foschia | 19 | 19 | 100 | 1015 | 5 | E/NE 13 | |
| Ieri h: 21:45 | Foschia | 19 | 19 | 100 | 1015 | 2 | E/NE 14.8 | |
| Ieri h: 21:24 | Foschia | 19 | 19 | 100 | 1015 | 8 | E 9.3 | |
| Ieri h: 21:13 | Foschia | 19 | 19 | 100 | 1015 | 5 | E 9.3 | |
| Ieri h: 21:10 | Foschia | 19 | 19 | 100 | 1015 | 2 | E 11.1 | |
| Ieri h: 21:05 | Foschia | 19 | 19 | 100 | 1015 | 5 | E/NE 7.4 | |
| Ieri h: 21:02 | Foschia | 19 | 19 | 100 | 1015 | 2 | E 9.3 | |
| Ieri h: 21:00 | Foschia | 19 | 19 | 100 | 1015 | 5 | E 11.1 | |
| Ieri h: 20:59 | Foschia | 19 | 19 | 100 | 1015 | 6 | E 13 | |
| Ieri h: 20:56 | Foschia | 19 | 19 | 100 | 1015 | 8 | E/NE 13 | |
| Ieri h: 20:49 | Foschia | 19 | 19 | 100 | 1015 | 10 | E/NE 11.1 | |
| Ieri h: 20:44 | Foschia | 19 | 19 | 100 | 1015 | 10 | E 9.3 | |
| Ieri h: 20:42 | Foschia | 19 | 19 | 100 | 1015 | 8 | N 5.5 | |
| Ieri h: 20:40 | Foschia | 19 | 19 | 100 | 1015 | 8 | E 7.4 | |
| Ieri h: 20:28 | Pioggia Foschia | 19 | 19 | 100 | 1015 | 8 | E/NE 11.1 | |
| Ieri h: 20:25 | Pioggia Foschia | 19 | 19 | 100 | 1015 | 8 | E 9.3 | |
| Ieri h: 20:24 | Pioggia Foschia | 19 | 19 | 100 | 1015 | 10 | E 11.1 | |
| Ieri h: 20:23 | Pioggia Foschia | 19 | 19 | 100 | 1015 | 10 | E/SE 9.3 | |
| Ieri h: 20:00 | Foschia | 19 | 19 | 100 | 1015 | 10 | E/NE 13 | |
| Ieri h: 19:00 | Coperto | 19 | 19 | 100 | 1015 | 13 | E/NE 14.8 | |
| Ieri h: 18:20 | Foschia | 19 | 19 | 100 | 1015 | 10 | E/NE 14.8 | |
| Ieri h: 18:11 | Foschia | 20 | 20 | 100 | 1015 | 5 | E/NE 16.7 | |
| Ieri h: 18:10 | Foschia | 20 | 20 | 100 | 1015 | 2 | E/NE 16.7 | |
| Ieri h: 18:06 | Foschia | 19 | 19 | 100 | 1015 | 3 | E/NE 16.7 | |
| Ieri h: 18:00 | Foschia | 20 | 20 | 100 | 1015 | 2 | E/NE 16.7 | |
| Ieri h: 17:58 | Foschia | 20 | 20 | 100 | 1015 | 2 | E/NE 16.7 | |
| Ieri h: 17:53 | Foschia | 20 | 20 | 100 | 1015 | 2 | E 16.7 | |
| Ieri h: 17:51 | Foschia | 20 | 20 | 100 | 1015 | 2 | E 14.8 | |
| Ieri h: 17:47 | Foschia | 19 | 19 | 100 | 1015 | 8 | E 16.7 | |
| Ieri h: 17:35 | Foschia | 20 | 20 | 100 | 1015 | 10 | E 11.1 | |
| Ieri h: 17:29 | Foschia | 20 | 20 | 100 | 1015 | 5 | E/NE 14.8 | |
| Ieri h: 17:24 | Foschia | 20 | 20 | 100 | 1015 | 2 | E 14.8 | |
| Ieri h: 17:01 | Foschia | 20 | 20 | 100 | 1016 | 8 | E 9.3 | |
| Ieri h: 17:00 | Foschia | 20 | 20 | 100 | 1016 | 10 | E 9.3 | |
| Ieri h: 16:56 | Foschia | 20 | 20 | 100 | 1016 | 10 | E 11.1 | |
| Ieri h: 16:51 | Foschia | 20 | 20 | 100 | 1015 | 10 | E 11.1 | |
| Ieri h: 16:35 | Foschia | 20 | 20 | 100 | 1015 | 5 | E 14.8 | |
| Ieri h: 16:25 | Foschia | 20 | 20 | 100 | 1015 | 3 | E 13 | |
| Ieri h: 16:19 | Foschia | 20 | 20 | 100 | 1015 | 2 | E 13 | |
| Ieri h: 16:01 | Foschia | 20 | 20 | 100 | 1015 | 5 | E 11.1 | |
| Ieri h: 16:00 | Foschia | 20 | 20 | 100 | 1015 | 2 | E 11.1 | |
| Ieri h: 15:54 | Foschia | 20 | 20 | 100 | 1015 | 5 | E 11.1 | |
| Ieri h: 15:53 | Foschia | 20 | 20 | 100 | 1015 | 3 | E 11.1 | |
| Ieri h: 15:50 | Foschia | 20 | 20 | 100 | 1015 | 5 | E 9.3 | |
| Ieri h: 15:41 | Foschia | 20 | 20 | 100 | 1016 | 6 | E 9.3 | |
| Ieri h: 15:28 | Foschia | 20 | 20 | 100 | 1016 | 6 | E 9.3 | |
| Ieri h: 15:27 | Foschia | 20 | 20 | 100 | 1016 | 6 | E 9.3 | |
| Ieri h: 15:00 | Foschia | 20 | 20 | 100 | 1016 | 6 | E 7.4 | |
| Ieri h: 14:49 | Foschia | 20 | 20 | 100 | 1016 | 6 | N 5.5 | |
| Ieri h: 14:30 | Pioggia Foschia | 20 | 20 | 100 | 1016 | 8 | N 5.5 | |
| Ieri h: 14:02 | Pioggia | 20 | 20 | 100 | 1016 | 11 | NE 7.4 | |
| Ieri h: 14:00 | Coperto | 20 | 20 | 100 | 1016 | 11 | N 5.5 | |
| Ieri h: 13:57 | Coperto | 20 | 20 | 100 | 1016 | 13 | N 5.5 | |
| Ieri h: 13:40 | Pioggia | 20 | 20 | 100 | 1016 | 14 | E 7.4 | |
| Ieri h: 13:39 | Coperto | 20 | 20 | 100 | 1016 | 14 | E 7.4 | |
| Ieri h: 13:20 | Pioggia | 19 | 19 | 100 | 1016 | 11 | E 7.4 | |
| Ieri h: 13:17 | Coperto | 19 | 19 | 100 | 1017 | 11 | E/NE 9.3 | |
| Ieri h: 13:12 | Pioggia | 19 | 19 | 100 | 1017 | 14 | E/NE 9.3 | |
| Ieri h: 13:02 | Pioggia | 19 | 19 | 100 | 1017 | 14 | E/NE 7.4 | |
| Ieri h: 13:00 | Pioggia | 19 | 19 | 100 | 1017 | 14 | E/NE 9.3 | |
| Ieri h: 12:37 | Pioggia | 19 | 19 | 100 | 1017 | 14 | E 9.3 | |
| Ieri h: 12:00 | Coperto | 19 | 19 | 100 | 1017 | 14 | E/SE 9.3 | |
| Ieri h: 11:00 | Coperto | 19 | 19 | 100 | 1017 | 14 | E/SE 13 | |
| Ieri h: 10:48 | Coperto | 19 | 19 | 100 | 1017 | 14 | SE 16.7 | |
| Ieri h: 10:05 | Foschia | 19 | 19 | 100 | 1017 | 10 | E/SE 11.1 | |
| Ieri h: 10:00 | Foschia | 19 | 19 | 100 | 1017 | 6 | E/SE 11.1 | |
| Ieri h: 09:59 | Foschia | 19 | 19 | 100 | 1017 | 6 | E 11.1 | |
| Ieri h: 09:50 | Pioggia Foschia | 19 | 19 | 100 | 1017 | 5 | E 9.3 | |
| Ieri h: 09:36 | Pioggia Foschia | 19 | 19 | 100 | 1017 | 2 | E/SE 9.3 | |
| Ieri h: 09:14 | Foschia | 19 | 19 | 100 | 1017 | 8 | E 7.4 | |
| Ieri h: 09:07 | Foschia | 19 | 19 | 100 | 1017 | 10 | E 7.4 | |
| Ieri h: 09:00 | Foschia | 19 | 19 | 100 | 1017 | 5 | E/SE 7.4 | |
| Ieri h: 08:57 | Foschia | 19 | 19 | 100 | 1017 | 5 | E/SE 9.3 | |
| Ieri h: 08:43 | Pioggia Foschia | 19 | 19 | 100 | 1017 | 5 | E 11.1 | |
| Ieri h: 08:27 | Pioggia Foschia | 19 | 19 | 100 | 1017 | 2 | E 11.1 | |
| Ieri h: 08:23 | Foschia | 19 | 19 | 100 | 1017 | 2 | E 11.1 | |
| Ieri h: 08:17 | Foschia | 19 | 19 | 100 | 1017 | 8 | E 11.1 | |
| Ieri h: 08:12 | Foschia | 19 | 19 | 100 | 1017 | 10 | E/NE 11.1 | |
| Ieri h: 08:09 | Foschia | 19 | 19 | 100 | 1017 | 6 | NE 9.3 | |
| Ieri h: 08:00 | Foschia | 19 | 19 | 100 | 1017 | 6 | NE 9.3 | |
| Ieri h: 07:55 | Foschia | 19 | 19 | 100 | 1017 | 5 | E/NE 7.4 | |
| Ieri h: 07:52 | Pioggia Foschia | 19 | 19 | 100 | 1017 | 5 | E/NE 7.4 | |
| Ieri h: 07:45 | Pioggia Foschia | 19 | 19 | 100 | 1017 | 3 | E 7.4 | |
| Ieri h: 07:42 | Pioggia Foschia | 19 | 19 | 100 | 1017 | 5 | E/NE 7.4 | |
| Ieri h: 07:40 | Pioggia Foschia | 19 | 19 | 100 | 1017 | 5 | E/NE 7.4 | |
| Ieri h: 07:36 | Pioggia Foschia | 19 | 19 | 100 | 1017 | 2 | E 7.4 | |
| Ieri h: 07:34 | Pioggia Foschia | 19 | 19 | 100 | 1017 | 2 | E 7.4 | |
| Ieri h: 07:31 | Pioggia Foschia | 19 | 19 | 100 | 1017 | 2 | N 5.5 | |



